Portada
METAR-TAF:

METAR-TAF

Aeroports :

Mildura, Austràlia

latitud: 34-13-45S, longitud: 142-05-08E, altitud: 51 m

Observació

L'informe es va fer fa 1 hora i 7 minuts, a les 00:00 UTC
Vent 9 kt del Oest
Temperatura 17°C
Humitat 52%
Pressió 1020 hPa
Visibilitat 10 km o més
Núvols disperses a una alçada de 3300 ft

METAR: YMIA 140000Z AUTO 27009KT 9999 // SCT033 17/07 Q1020

Hora: 12:07 (01:07 UTC)


TAF: manca

Observacions i pronòstics meteorològics de més de 4000 aeroports (METAR i TAF).

Les estacions disponibles són els punts grocs i vermells al mapa.

Posi el ratolí al punt desitjat per veure el nom de l'estació.

Feu clic per veure les observacions i els pronòstics meteorològics.

Per canviar el mapa: feu clic els botons verds amb una creu de color negre per apropar; al botó verd amb un guió per allunyar la imatge; o en les fletxes verdes per a mapes adjacents.


METAR-TAF: